RYR1LX LPPT-LFML

Flight info

Callsign RYR1LX
Flight time 1h 41m
Altitude 34000
Route ORVED DCT UREDI N870 PISUS/N0451F300 N870 PONEN/N0455F350 N870 SEROX/N0455F360 N870 FEVIK/N0450F300 N870 DIBER UN870 SOSUR
Aircraft B738/M-SDE2E3FGHIRWXY/LB1

Departure

Time 2026-05-04 16:55
Airport Lisbon Humberto Delgado Airport (LPPT)

Arrival

Time 2026-05-04 18:37
Airport Marseille Provence Airport (LFML)
Time Latitude Longitude Altitude Speed Heading
2026-05-04 16:55 38.97713 -8.83731 11051 ft 362 kts 64°
2026-05-04 16:55 38.99925 -8.77766 12266 ft 376 kts 64°
2026-05-04 16:56 39.02191 -8.71657 13606 ft 386 kts 64°
2026-05-04 16:56 39.05722 -8.62115 15491 ft 399 kts 64°
2026-05-04 16:57 39.06921 -8.58869 16092 ft 403 kts 64°
2026-05-04 16:57 39.09351 -8.52275 17286 ft 412 kts 64°
2026-05-04 16:58 39.13084 -8.42119 18955 ft 425 kts 64°
2026-05-04 16:58 39.14355 -8.38653 19445 ft 429 kts 64°
2026-05-04 16:59 39.16924 -8.31634 20400 ft 438 kts 64°
2026-05-04 17:00 39.22205 -8.17151 22229 ft 455 kts 65°
2026-05-04 17:00 39.26265 -8.05971 23528 ft 467 kts 65°
2026-05-04 17:01 39.28935 -7.98259 24224 ft 474 kts 70°
2026-05-04 17:01 39.31218 -7.90204 24930 ft 480 kts 71°
2026-05-04 17:02 39.33489 -7.82028 25627 ft 487 kts 71°
2026-05-04 17:02 39.35847 -7.73768 26295 ft 493 kts 70°
2026-05-04 17:03 39.37042 -7.69605 26605 ft 496 kts 70°
2026-05-04 17:03 39.38245 -7.65409 26919 ft 499 kts 70°
2026-05-04 17:03 39.41132 -7.57182 27515 ft 505 kts 63°
2026-05-04 17:04 39.44400 -7.49076 28129 ft 511 kts 62°
2026-05-04 17:04 39.47672 -7.40863 28697 ft 516 kts 63°
2026-05-04 17:05 39.50878 -7.32568 29220 ft 521 kts 64°
2026-05-04 17:05 39.54102 -7.24111 29820 ft 524 kts 64°
2026-05-04 17:06 39.57324 -7.15635 30513 ft 523 kts 64°
2026-05-04 17:06 39.58926 -7.11419 30863 ft 521 kts 64°
2026-05-04 17:07 39.62120 -7.03001 31543 ft 520 kts 63°
2026-05-04 17:07 39.63178 -7.00207 31759 ft 519 kts 63°
2026-05-04 17:07 39.65304 -6.94589 32173 ft 519 kts 63°
2026-05-04 17:07 39.66892 -6.90384 32497 ft 518 kts 63°
2026-05-04 17:08 39.68474 -6.86188 32822 ft 517 kts 63°
2026-05-04 17:08 39.71624 -6.77817 33483 ft 514 kts 63°
2026-05-04 17:08 39.73169 -6.73700 33790 ft 514 kts 63°
2026-05-04 17:09 39.74737 -6.69519 33999 ft 515 kts 63°
2026-05-04 17:09 39.77879 -6.61122 33962 ft 515 kts 63°
2026-05-04 17:10 39.85613 -6.40348 33953 ft 507 kts 63°
2026-05-04 17:11 39.88545 -6.32005 33960 ft 507 kts 66°
2026-05-04 17:12 39.92683 -6.19312 33953 ft 508 kts 66°
2026-05-04 17:13 39.99662 -5.98080 33950 ft 512 kts 66°
2026-05-04 17:14 40.05284 -5.80954 33961 ft 514 kts 66°
2026-05-04 17:15 40.09470 -5.68123 33949 ft 514 kts 66°
2026-05-04 17:16 40.15040 -5.50960 33950 ft 512 kts 67°
2026-05-04 17:17 40.20560 -5.33843 33974 ft 509 kts 67°
2026-05-04 17:18 40.26020 -5.16806 33958 ft 508 kts 67°
2026-05-04 17:19 40.31458 -4.99733 33956 ft 507 kts 67°
2026-05-04 17:20 40.36863 -4.82656 33943 ft 507 kts 68°
2026-05-04 17:20 40.40881 -4.69897 33953 ft 507 kts 68°
2026-05-04 17:21 40.46256 -4.52770 33959 ft 508 kts 68°
2026-05-04 17:22 40.48939 -4.44187 33955 ft 508 kts 68°
2026-05-04 17:23 40.54288 -4.26988 33949 ft 508 kts 68°
2026-05-04 17:24 40.58272 -4.14109 33962 ft 506 kts 68°
2026-05-04 17:25 40.63532 -3.97007 33986 ft 504 kts 68°
2026-05-04 17:26 40.68765 -3.79883 34129 ft 503 kts 67°
2026-05-04 17:26 40.72684 -3.66987 33996 ft 506 kts 68°
2026-05-04 17:27 40.75272 -3.58437 33991 ft 505 kts 68°
2026-05-04 17:28 40.80457 -3.41220 33960 ft 504 kts 68°
2026-05-04 17:29 40.87390 -3.15135 33948 ft 501 kts 76°
2026-05-04 17:31 40.91639 -2.92847 33958 ft 501 kts 76°
2026-05-04 17:32 40.95958 -2.70552 33963 ft 500 kts 76°
2026-05-04 17:33 40.99338 -2.52967 33960 ft 501 kts 76°
2026-05-04 17:34 41.02780 -2.35094 33963 ft 502 kts 77°
2026-05-04 17:35 41.06989 -2.12684 33961 ft 502 kts 77°
2026-05-04 17:36 41.08679 -2.03640 33959 ft 502 kts 77°
2026-05-04 17:36 41.10345 -1.94718 33956 ft 502 kts 77°
2026-05-04 17:37 41.12016 -1.85740 33959 ft 501 kts 77°
2026-05-04 17:37 41.13678 -1.76761 33959 ft 501 kts 78°
2026-05-04 17:38 41.15334 -1.67767 33962 ft 501 kts 78°
2026-05-04 17:38 41.16983 -1.58771 33960 ft 501 kts 78°
2026-05-04 17:39 41.19166 -1.46798 33966 ft 501 kts 78°
2026-05-04 17:39 41.21053 -1.36355 33971 ft 501 kts 78°
2026-05-04 17:40 41.22408 -1.28801 33977 ft 501 kts 78°
2026-05-04 17:40 41.24006 -1.19854 33976 ft 501 kts 78°
2026-05-04 17:41 41.25608 -1.10842 33961 ft 501 kts 78°
2026-05-04 17:41 41.27202 -1.01835 33966 ft 500 kts 79°
2026-05-04 17:42 41.28788 -0.92834 33956 ft 500 kts 79°
2026-05-04 17:42 41.30368 -0.83816 33952 ft 501 kts 79°
2026-05-04 17:43 41.31943 -0.74786 33949 ft 501 kts 79°
2026-05-04 17:43 41.33511 -0.65754 33950 ft 501 kts 79°
2026-05-04 17:44 41.35056 -0.56705 33939 ft 501 kts 82°
2026-05-04 17:44 41.35510 -0.47546 33956 ft 495 kts 95°
2026-05-04 17:45 41.35359 -0.38438 33943 ft 495 kts 95°
2026-05-04 17:45 41.35224 -0.29257 33942 ft 496 kts 95°
2026-05-04 17:46 41.35135 -0.20066 33942 ft 497 kts 95°
2026-05-04 17:46 41.35056 -0.10852 33933 ft 498 kts 95°
2026-05-04 17:47 41.34967 -0.01645 33932 ft 498 kts 95°
2026-05-04 17:47 41.34869 0.07572 33928 ft 498 kts 95°
2026-05-04 17:48 41.34763 0.16772 33935 ft 497 kts 95°
2026-05-04 17:48 41.34649 0.25976 33924 ft 497 kts 95°
2026-05-04 17:49 41.34522 0.35151 33914 ft 495 kts 95°
2026-05-04 17:49 41.34389 0.44301 33917 ft 495 kts 95°
2026-05-04 17:50 41.34250 0.53448 33919 ft 494 kts 95°
2026-05-04 17:50 41.34103 0.62583 33927 ft 494 kts 96°
2026-05-04 17:51 41.33943 0.71760 33933 ft 498 kts 96°
2026-05-04 17:51 41.33775 0.81005 33905 ft 501 kts 96°
2026-05-04 17:52 41.33605 0.90194 33919 ft 499 kts 96°
2026-05-04 17:52 41.33425 0.99421 33923 ft 498 kts 96°
2026-05-04 17:53 41.33239 1.08603 33925 ft 496 kts 96°
2026-05-04 17:53 41.33046 1.17788 33929 ft 496 kts 96°
2026-05-04 17:54 41.32856 1.26943 33926 ft 495 kts 96°
2026-05-04 17:54 41.32661 1.36098 33928 ft 494 kts 96°
2026-05-04 17:55 41.32459 1.45238 33932 ft 494 kts 96°
2026-05-04 17:55 41.32249 1.54380 33928 ft 494 kts 96°
2026-05-04 17:56 41.32032 1.63512 33931 ft 493 kts 96°
2026-05-04 17:56 41.31805 1.72624 33930 ft 493 kts 97°
2026-05-04 17:57 41.31552 1.81682 33936 ft 492 kts 97°
2026-05-04 17:57 41.31291 1.90790 33940 ft 493 kts 97°
2026-05-04 17:58 41.31027 1.99908 33938 ft 493 kts 97°
2026-05-04 17:58 41.31111 2.09040 33939 ft 499 kts 85°
2026-05-04 17:59 41.33012 2.17966 33933 ft 506 kts 68°
2026-05-04 18:00 41.37532 2.30644 33940 ft 506 kts 66°
2026-05-04 18:00 41.40545 2.39125 33925 ft 506 kts 67°
2026-05-04 18:01 41.43499 2.47637 33935 ft 506 kts 67°
2026-05-04 18:01 41.46431 2.56163 33936 ft 506 kts 67°
2026-05-04 18:02 41.50803 2.68918 33946 ft 506 kts 67°
2026-05-04 18:02 41.53724 2.77460 33942 ft 506 kts 68°
2026-05-04 18:03 41.56642 2.86019 33944 ft 507 kts 68°
2026-05-04 18:03 41.59559 2.94603 33925 ft 507 kts 68°
2026-05-04 18:04 41.62470 3.03198 33929 ft 507 kts 68°
2026-05-04 18:05 41.66823 3.16095 33930 ft 507 kts 68°
2026-05-04 18:05 41.69712 3.24710 33924 ft 507 kts 68°
2026-05-04 18:06 41.74017 3.37652 33921 ft 507 kts 68°
2026-05-04 18:06 41.76891 3.46293 33922 ft 508 kts 68°
2026-05-04 18:07 41.79761 3.54942 33923 ft 508 kts 68°
2026-05-04 18:07 41.82603 3.63541 33923 ft 508 kts 68°
2026-05-04 18:08 41.85459 3.72211 33921 ft 508 kts 68°
2026-05-04 18:08 41.88307 3.80884 33920 ft 508 kts 68°
2026-05-04 18:09 41.93984 3.98246 33928 ft 507 kts 68°
2026-05-04 18:10 41.96804 4.06891 33932 ft 508 kts 68°
2026-05-04 18:10 41.98222 4.11249 33490 ft 513 kts 68°
2026-05-04 18:10 41.99670 4.15708 32838 ft 512 kts 68°
2026-05-04 18:11 42.01091 4.20089 32174 ft 511 kts 68°
2026-05-04 18:11 42.02496 4.24428 31478 ft 512 kts 68°
2026-05-04 18:11 42.03912 4.28809 30777 ft 512 kts 68°
2026-05-04 18:11 42.05327 4.33191 30267 ft 507 kts 68°
2026-05-04 18:12 42.06783 4.37472 29704 ft 503 kts 63°
2026-05-04 18:12 42.08632 4.41461 29139 ft 499 kts 54°
2026-05-04 18:12 42.10823 4.45049 28600 ft 493 kts 45°
2026-05-04 18:12 42.13324 4.48166 28096 ft 487 kts 41°
2026-05-04 18:13 42.15862 4.51158 27561 ft 482 kts 40°
2026-05-04 18:13 42.18380 4.54106 27041 ft 477 kts 40°
2026-05-04 18:13 42.23343 4.59985 26019 ft 468 kts 41°
2026-05-04 18:14 42.25763 4.62892 25518 ft 464 kts 41°
2026-05-04 18:14 42.28152 4.65777 25021 ft 460 kts 41°
2026-05-04 18:14 42.30535 4.68664 24527 ft 457 kts 41°
2026-05-04 18:15 42.35243 4.74379 23510 ft 451 kts 41°
2026-05-04 18:15 42.39855 4.79986 22411 ft 443 kts 41°
2026-05-04 18:15 42.42140 4.82767 21913 ft 439 kts 41°
2026-05-04 18:16 42.44371 4.85485 21426 ft 434 kts 42°
2026-05-04 18:16 42.46611 4.88216 20947 ft 430 kts 42°
2026-05-04 18:16 42.48819 4.90911 20479 ft 426 kts 42°
2026-05-04 18:17 42.53183 4.96246 19548 ft 418 kts 43°
2026-05-04 18:17 42.55481 4.98637 19049 ft 416 kts 28°
2026-05-04 18:17 42.61004 5.00425 18186 ft 408 kts
2026-05-04 18:18 42.63830 5.00681 17640 ft 406 kts
2026-05-04 18:18 42.66638 5.00919 17184 ft 403 kts
2026-05-04 18:18 42.69436 5.01179 16727 ft 400 kts
2026-05-04 18:18 42.72167 5.01456 16278 ft 398 kts
2026-05-04 18:19 42.77662 5.02053 15401 ft 393 kts
2026-05-04 18:19 42.80381 5.02475 14949 ft 393 kts 12°
2026-05-04 18:19 42.82903 5.03843 14651 ft 388 kts 27°
2026-05-04 18:20 42.85278 5.05544 14321 ft 383 kts 27°
2026-05-04 18:20 42.87628 5.07219 14001 ft 381 kts 26°
2026-05-04 18:20 42.89985 5.08857 13669 ft 379 kts 26°
2026-05-04 18:20 42.92348 5.10451 13314 ft 377 kts 21°
2026-05-04 18:21 42.94876 5.11265 12970 ft 372 kts
2026-05-04 18:21 42.97417 5.10929 12676 ft 364 kts 343°
2026-05-04 18:21 42.99859 5.10097 12380 ft 362 kts 342°
2026-05-04 18:21 43.02263 5.09216 12072 ft 361 kts 341°
2026-05-04 18:22 43.04685 5.08326 11769 ft 360 kts 342°
2026-05-04 18:22 43.07108 5.07449 11460 ft 358 kts 342°
2026-05-04 18:22 43.09499 5.06600 11156 ft 353 kts 343°
2026-05-04 18:22 43.11865 5.05770 10859 ft 348 kts 343°
2026-05-04 18:23 43.14204 5.04952 10568 ft 344 kts 342°
2026-05-04 18:23 43.16502 5.04149 10295 ft 339 kts 343°
2026-05-04 18:23 43.18695 5.03382 10018 ft 335 kts 343°
2026-05-04 18:23 43.20930 5.02646 9930 ft 325 kts 348°
2026-05-04 18:24 43.23145 5.02355 9914 ft 313 kts 356°
2026-05-04 18:24 43.25276 5.02268 9820 ft 300 kts 357°
2026-05-04 18:24 43.26645 5.02216 9569 ft 296 kts 357°
2026-05-04 18:24 43.28710 5.02106 9018 ft 298 kts 356°
2026-05-04 18:25 43.30783 5.01969 8593 ft 295 kts 356°
2026-05-04 18:25 43.32790 5.01825 8287 ft 289 kts 356°
2026-05-04 18:25 43.34803 5.01779 8028 ft 282 kts
2026-05-04 18:25 43.36736 5.01884 7802 ft 281 kts
2026-05-04 18:26 43.38711 5.02005 7574 ft 286 kts
2026-05-04 18:26 43.40717 5.02116 7310 ft 291 kts
2026-05-04 18:26 43.42743 5.02022 7029 ft 295 kts 345°
2026-05-04 18:26 43.44589 5.00822 6616 ft 295 kts 319°
2026-05-04 18:27 43.46091 4.98893 6179 ft 298 kts 313°
2026-05-04 18:27 43.47571 4.96881 5677 ft 298 kts 313°
2026-05-04 18:27 43.49053 4.94880 5197 ft 297 kts 314°
2026-05-04 18:27 43.50491 4.92950 5001 ft 285 kts 314°
2026-05-04 18:28 43.51877 4.91098 4955 ft 273 kts 314°
2026-05-04 18:28 43.53229 4.89292 4953 ft 267 kts 314°
2026-05-04 18:28 43.54557 4.87519 4970 ft 265 kts 314°
2026-05-04 18:28 43.56017 4.86037 4944 ft 259 kts 339°
2026-05-04 18:29 43.57743 4.85692 4961 ft 247 kts 10°
2026-05-04 18:29 43.59289 4.86451 4982 ft 227 kts 37°
2026-05-04 18:29 43.60429 4.87833 4955 ft 213 kts 58°
2026-05-04 18:29 43.61229 4.89537 4891 ft 212 kts 65°
2026-05-04 18:30 43.62506 4.93094 4540 ft 195 kts 93°
2026-05-04 18:30 43.62112 4.94722 4441 ft 175 kts 131°
2026-05-04 18:30 43.61352 4.96028 4324 ft 176 kts 131°
2026-05-04 18:31 43.60583 4.97285 4206 ft 170 kts 133°
2026-05-04 18:31 43.59808 4.98454 4232 ft 165 kts 135°
2026-05-04 18:31 43.58991 4.99644 4025 ft 171 kts 134°
2026-05-04 18:31 43.58179 5.00811 3800 ft 165 kts 134°
2026-05-04 18:32 43.57392 5.01934 3588 ft 159 kts 134°
2026-05-04 18:32 43.56643 5.03001 3379 ft 150 kts 134°
2026-05-04 18:32 43.55933 5.04013 3194 ft 147 kts 133°
2026-05-04 18:32 43.55189 5.05075 3010 ft 160 kts 132°
2026-05-04 18:33 43.54413 5.06178 2772 ft 159 kts 132°
2026-05-04 18:33 43.53652 5.07262 2553 ft 155 kts 132°
2026-05-04 18:33 43.52912 5.08318 2346 ft 149 kts 132°
2026-05-04 18:33 43.52218 5.09310 2143 ft 138 kts 132°
2026-05-04 18:34 43.51571 5.10232 1974 ft 132 kts 133°
2026-05-04 18:34 43.50942 5.11128 1806 ft 133 kts 133°
2026-05-04 18:34 43.50293 5.12052 1661 ft 135 kts 133°
2026-05-04 18:34 43.49638 5.12988 1463 ft 137 kts 133°
2026-05-04 18:35 43.48975 5.13931 1280 ft 138 kts 132°
2026-05-04 18:35 43.48293 5.14906 1091 ft 144 kts 130°
2026-05-04 18:35 43.47610 5.15884 891 ft 142 kts 132°
2026-05-04 18:35 43.46924 5.16889 613 ft 145 kts 133°
2026-05-04 18:36 43.46196 5.17893 540 ft 152 kts 132°
2026-05-04 18:36 43.45443 5.18985 254 ft 158 kts 131°
2026-05-04 18:36 43.44702 5.20034 50 ft 145 kts 133°
2026-05-04 18:36 43.44078 5.20925 33 ft 105 kts 134°
2026-05-04 18:37 43.43715 5.21442 60 ft 47 kts 134°
2026-05-04 18:37 43.43496 5.21757 34 ft 45 kts 133°
2026-05-04 18:37 43.43341 5.22005 34 ft 23 kts 110°
2026-05-04 18:37 43.43333 5.22101 36 ft 6 kts 90°
2026-05-04 18:38 43.43334 5.22190 36 ft 10 kts 88°
2026-05-04 18:38 43.43365 5.22273 35 ft 9 kts 33°
2026-05-04 18:38 43.43431 5.22275 36 ft 10 kts 338°
2026-05-04 18:38 43.43440 5.22269 34 ft 0 kts 333°
2026-05-04 18:41 43.43441 5.22268 34 ft 1 kts 333°
2026-05-04 18:41 43.43466 5.22249 36 ft 6 kts 331°
2026-05-04 18:42 43.43513 5.22213 36 ft 9 kts 331°
2026-05-04 18:42 43.43565 5.22170 36 ft 9 kts 329°
2026-05-04 18:42 43.43627 5.22120 36 ft 11 kts 330°
2026-05-04 18:42 43.43703 5.22059 36 ft 13 kts 329°
2026-05-04 18:43 43.43781 5.21988 36 ft 9 kts 315°
2026-05-04 18:43 43.43835 5.21914 36 ft 12 kts 311°
2026-05-04 18:43 43.43879 5.21850 36 ft 8 kts 314°
2026-05-04 18:43 43.43928 5.21780 36 ft 12 kts 313°
2026-05-04 18:44 43.43943 5.21758 36 ft 4 kts 313°
2026-05-04 18:44 43.43951 5.21746 36 ft 2 kts 313°
2026-05-04 18:44 43.43966 5.21725 36 ft 4 kts 313°
2026-05-04 18:44 43.43982 5.21673 36 ft 8 kts 273°
2026-05-04 18:45 43.43951 5.21597 36 ft 6 kts 225°
2026-05-04 18:45 43.43920 5.21530 36 ft 11 kts 261°
2026-05-04 18:45 43.43961 5.21431 36 ft 10 kts 314°
2026-05-04 18:45 43.44023 5.21355 36 ft 11 kts 339°
2026-05-04 18:46 43.44094 5.21382 36 ft 7 kts 39°
2026-05-04 18:46 43.44135 5.21431 36 ft 10 kts 46°
2026-05-04 18:46 43.44186 5.21503 36 ft 11 kts 44°
2026-05-04 18:46 43.44243 5.21578 36 ft 9 kts 43°
2026-05-04 18:47 43.44266 5.21629 36 ft 3 kts 105°
2026-05-04 18:47 43.44242 5.21661 36 ft 6 kts 134°
2026-05-04 18:47 43.44236 5.21669 36 ft 0 kts 134°